Flag for Mauritania Weather past 2 weeks in Nouadhibou, Mauritania

Now
72 °F

Passing clouds.


Feels Like: 69 °F
Forecast: N/A
Wind: 16 mph from Northwest

Location: Nouadhibou Airport

Current Time: Aug 28, 2014 at 11:20:48 PM

Latest Report: Aug 28, 2014 at 11:00 PM


Visibility: 4 mi

Pressure: 29.89 "Hg

Humidity: 88%

Dew point: 68 °F

Location of NouadhibouLocation

Historic Weather in Nouadhibou — Graph

°F

Nouadhibou temperature yesterday

Maximum temperature yesterday: 77 °F (at 2:00 PM)
Minimum temperature yesterday: 70 °F (at 4:00 AM)
Average temperature yesterday: 72 °F

Past Weeks' High & Low Weather Summary

 TemperatureHumidityPressure
High95 °F (Aug 22, 1:00 PM)94% (Aug 15, 2:00 AM)30.01 "Hg (Aug 15, 2:00 AM)
Low68 °F (Aug 14, 1:00 AM)41% (Aug 22, 1:00 PM)29.77 "Hg (Aug 17, 6:00 PM)
Average74 °F79%29.89 "Hg
* Reported Aug 13 10:00 PM — Aug 28 10:00 PM, Nouadhibou, Weather by CustomWeather, © 2014

Note: Actual official high and low records may vary slightly from our data, if they occured in-between our weather recording intervals... More about our weather records

Advertising

Nouadhibou weather history for previous 24 hours

 ConditionsComfort  
Time TempWeatherWind HumidityBarometerVisibility
10:00 PM
Aug 28
72 °FPassing clouds.16 mph88%29.89 "Hg4 mi
9:00 PM72 °FPassing clouds.17 mph88%29.86 "Hg4 mi
8:00 PM73 °FPassing clouds.17 mph83%29.86 "Hg4 mi
7:00 PM73 °FScattered clouds.20 mph83%29.86 "Hg4 mi
6:00 PM75 °FScattered clouds.18 mph78%29.86 "Hg4 mi
5:00 PM75 °FScattered clouds.17 mph78%29.86 "Hg4 mi
4:00 PM79 °FScattered clouds.18 mph74%29.86 "Hg4 mi
3:00 PM77 °FScattered clouds.18 mph79%29.86 "Hg4 mi
2:00 PM79 °FScattered clouds.17 mph74%29.86 "Hg4 mi
11:00 AM75 °FScattered clouds.15 mph83%29.95 "Hg4 mi
10:00 AM75 °FScattered clouds.16 mph89%29.95 "Hg4 mi
9:00 AM73 °FPartly sunny.12 mph89%29.95 "Hg4 mi
8:00 AM72 °FFog.9 mph94%29.92 "Hg2 mi
7:00 AM72 °FPartly sunny.3 mph94%29.95 "Hg5 mi
6:00 AM72 °FPassing clouds.6 mph94%29.92 "Hg5 mi
5:00 AM72 °FPassing clouds.9 mph94%29.89 "Hg5 mi
4:00 AM72 °FPassing clouds.7 mph94%29.92 "Hg5 mi
3:00 AM72 °FPassing clouds.9 mph88%29.95 "Hg5 mi
2:00 AM72 °FPassing clouds.16 mph88%29.95 "Hg5 mi
1:00 AM72 °FPassing clouds.13 mph88%29.95 "Hg5 mi
12:00 AM72 °FPassing clouds.17 mph94%29.95 "Hg5 mi
11:00 PM
Aug 27
72 °FPassing clouds.15 mph88%29.95 "Hg5 mi
Weather by CustomWeather, © 2014

See weather overviewHow to use our weather pages